[[{"header":{"parameterUnit":"m.s-1","parameterCategory":1,"la1":30.2992,"la2":30.254,"lo1":-89.0895,"lo2":-89.0443,"dy":0.0025,"dx":0.0025,"nx":19,"ny":19,"refTime":"2026-04-21T03:00:00:Z","depth":0,"parameterNumber":2,"parameterNumberName":"U-component_of_WINDS"},"data":[0,0,0,-5.8882,-5.8883,-5.8913,-5.8913,-5.8967,-5.8968,0,0,0,0,0,0,0,0,0,0,0,-5.8882,-5.8882,-5.8882,-5.8883,-5.8913,-5.8913,-5.8967,-5.8968,0,0,0,0,0,0,0,0,0,0,0,-5.8882,-5.8882,-5.8883,-5.8883,-5.8913,-5.8913,-5.8967,-5.8939,0,0,0,0,0,0,0,0,0,0,-5.8907,-5.8915,-5.8882,-5.8883,-5.8883,-5.8913,-5.8913,-5.8937,-5.894,-5.896,0,-5.898,0,-5.8975,-5.8972,-5.8973,0,0,0,-5.8876,-5.8912,-5.8913,-5.8883,-5.8884,-5.8913,-5.8897,-5.8939,-5.8943,-5.8965,-5.898,-5.8982,-5.8976,-5.8973,-5.8973,-5.9109,-5.911,0,0,-5.8874,-5.8892,-5.891,-5.8916,-5.8912,-5.8897,-5.8898,-5.8941,-5.8959,-5.898,-5.8983,-5.8977,-5.8973,-5.8974,-5.9108,-5.911,0,0,0,-5.8874,-5.8891,-5.889,-5.8914,-5.8918,-5.8898,-5.89,-5.8957,-5.8955,-5.8983,-5.8977,-5.8974,-5.8975,-5.9107,-5.9109,-5.9172,0,0,0,-5.8873,-5.8891,-5.8889,-5.8901,-5.8918,-5.8938,-5.8915,-5.8952,-5.8956,-5.8977,-5.8974,-5.8975,-5.9106,-5.9108,-5.9168,-5.9198,0,0,0,-5.8877,-5.8891,-5.8899,-5.8901,-5.8915,-5.8937,-5.8937,-5.8953,-5.8953,-5.8973,-5.8975,-5.9105,-5.9108,-5.9164,-5.9192,-5.9239,0,0,0,-5.8886,-5.8954,-5.89,-5.8974,-5.8915,-5.8976,-5.8937,-5.8981,-5.9006,-5.8974,-5.9106,-5.9109,-5.9163,-5.9189,-5.9235,-5.9279,-5.93,0,0,-5.8982,-5.8966,-5.9009,-5.8961,-5.9037,-5.897,-5.9055,-5.9061,-5.9047,-5.9089,-5.9092,-5.9169,-5.9192,-5.9238,-5.9413,-5.943,0,0,0,-5.9045,-5.9075,-5.9092,-5.9116,-5.9123,-5.9131,-5.9122,-5.9125,-5.916,-5.9072,-5.9199,-5.9212,-5.9238,-5.9258,-5.9272,-5.9294,-5.9119,-5.9119,-5.9119,-5.9203,-5.9183,-5.9252,-5.9236,-5.9261,-5.9252,-5.927,-5.9272,-5.9243,-5.9274,-5.9285,-5.9394,-5.9419,-5.9429,-5.9452,-5.9309,-5.9309,-5.9309,-5.931,-5.934,-5.938,-5.9343,-5.9396,-5.9375,-5.9419,-5.9415,-5.9394,-5.9432,-5.9383,-5.9405,-5.9352,-5.9448,-5.9466,-5.9314,-5.9313,-5.9313,-5.9312,-5.9312,-5.944,-5.9455,-5.9459,-5.9493,-5.9523,-5.9505,-5.9544,-5.9523,-5.9504,-5.9526,-5.9536,-5.9535,-5.953,-5.9533,-5.9533,-5.9534,-5.9534,-5.9534,-5.9535,-5.9541,-5.9543,-5.9578,-5.9594,-5.9608,-5.9624,-5.9618,-5.9631,-5.9641,-5.9622,-5.9622,-5.9591,-5.9462,-5.9429,-5.954,-5.9539,-5.9538,-5.9538,-5.9538,-5.9684,-5.9649,-5.9704,-5.9718,-5.9735,-5.9766,-5.9741,-5.977,-5.9778,-5.9798,-5.9764,-5.9672,-5.9655,-5.9643,-5.9616,-5.9768,-5.9768,-5.9768,-5.9768,-5.9766,-5.9757,-5.9809,-5.9833,-5.9855,-5.9838,-5.9902,-5.99,-5.9891,-5.9895,-5.9871,-5.9834,-5.9823,-5.9811,-5.9797,-5.977,-5.9959,-5.9959,-5.9959,-5.9853,-5.9845,-5.9902,-5.9894,-5.9907,-5.9919,-5.9977,-6.0007,-5.9991,-5.9966,-5.9898,-5.989,-5.9829,-5.9811,-5.9781,-5.9759,-5.971,0,0]},{"header":{"parameterUnit":"m.s-1","parameterCategory":1,"la1":30.2992,"la2":30.254,"lo1":-89.0895,"lo2":-89.0443,"dy":0.0025,"dx":0.0025,"nx":19,"ny":19,"refTime":"2026-04-21T03:00:00:Z","depth":0,"parameterNumber":3,"parameterNumberName":"V-component_of_WINDS"},"data":[0,0,0,4.7601,4.7602,4.7633,4.7633,4.7667,4.7668,0,0,0,0,0,0,0,0,0,0,0,4.7589,4.759,4.7601,4.7602,4.7633,4.7633,4.7667,4.7668,0,0,0,0,0,0,0,0,0,0,0,4.7589,4.759,4.759,4.7602,4.7633,4.7633,4.7667,4.7646,0,0,0,0,0,0,0,0,0,0,4.7616,4.7603,4.7589,4.759,4.7602,4.7633,4.7633,4.7645,4.7647,4.7651,0,4.7655,0,4.7662,4.767,4.767,0,0,0,4.7603,4.7601,4.7612,4.759,4.7602,4.7633,4.7619,4.7646,4.7649,4.7654,4.7656,4.7657,4.7663,4.767,4.767,4.7693,4.7694,0,0,4.7602,4.7593,4.761,4.7614,4.7609,4.7618,4.762,4.7648,4.7648,4.7656,4.7658,4.7663,4.767,4.767,4.7693,4.7693,0,0,0,4.7596,4.7592,4.7602,4.7612,4.7618,4.7619,4.7621,4.7647,4.7651,4.7658,4.7664,4.767,4.7671,4.7693,4.7693,4.7688,0,0,0,4.7595,4.7588,4.7601,4.7596,4.7618,4.7633,4.762,4.7649,4.7653,4.7664,4.767,4.7671,4.7693,4.7693,4.7688,4.7686,0,0,0,4.7588,4.7588,4.7591,4.7596,4.7609,4.7633,4.7639,4.765,4.7656,4.767,4.7671,4.7693,4.7693,4.7688,4.7686,4.769,0,0,0,4.7578,4.7584,4.7591,4.76,4.7609,4.7629,4.7638,4.7654,4.7665,4.7671,4.7693,4.7693,4.7688,4.7686,4.769,4.7692,4.7692,0,0,4.7581,4.7584,4.759,4.7597,4.7615,4.7625,4.7641,4.7659,4.7668,4.7684,4.7685,4.7688,4.7686,4.769,4.7695,4.7695,0,0,0,4.7588,4.7592,4.7599,4.761,4.7626,4.7638,4.7655,4.7662,4.7677,4.7675,4.7691,4.769,4.7692,4.7694,4.7694,4.7697,4.7694,4.7694,4.7694,4.7578,4.7591,4.7602,4.7619,4.763,4.7649,4.7659,4.7671,4.7679,4.7683,4.7687,4.7689,4.769,4.769,4.7693,4.7689,4.7689,4.7689,4.7689,4.7583,4.7591,4.7604,4.762,4.7633,4.7646,4.7665,4.767,4.7684,4.7686,4.7689,4.769,4.769,4.7693,4.7689,4.7689,4.7689,4.7689,4.7689,4.7577,4.7584,4.7594,4.7614,4.7627,4.7644,4.7658,4.7669,4.7679,4.7682,4.7689,4.7689,4.769,4.7685,4.7685,4.7685,4.7685,4.7685,4.7685,4.7567,4.7579,4.759,4.7609,4.7619,4.7633,4.7654,4.7664,4.7677,4.7684,4.7685,4.7692,4.7688,4.7686,4.7685,4.7685,4.7685,4.7685,4.7685,4.7567,4.757,4.7586,4.7596,4.762,4.7634,4.7649,4.7669,4.7679,4.7685,4.7693,4.7688,4.7692,4.7692,4.769,4.769,4.769,4.769,4.769,4.7562,4.7566,4.7586,4.7603,4.762,4.7636,4.7654,4.7671,4.7688,4.7695,4.7697,4.7697,4.7696,4.77,4.77,4.7699,4.7701,4.7701,4.7701,4.7562,4.7569,4.7582,4.7601,4.7622,4.7639,4.7657,4.7674,4.7694,4.7702,4.7701,4.77,4.77,4.7699,4.7705,4.7705,4.7703,0,0]}]]